Location: Unspecified
(0.0000°N, 0.0000°E)
Time: 09:35:01
(UTC+00:00)

Vanguard 2 Rocket - Pass Details

Date: 07 October 2022
Orbit: 555 x 3321 km, 32.9° (Epoch: 29 November)

Event Time Altitude Azimuth Distance (km) Brightness Sun altitude
Exits shadow 04:51:28 - 326° (NNW) 2,504 8.8 -14.0°
Reaches altitude 10° 04:52:24 10° 331° (NNW) 2,148 8.5 -13.8°
Maximum altitude 04:56:24 28° 31° (NNE) 1,115 7.6 -12.8°
Drops below altitude 10° 04:59:48 10° 92° (E) 1,822 10.0 -12.0°
Sets 05:02:12 0° 105° (ESE) 2,741 11.4 -11.4°
